Regional Weather Roundup
Issued by NWS

Home | Current Version | Previous Version | Graphics & Text | Print | Product List | Glossary On
Versions: 1 2 3 4 5 6 7 8 9 10 11 12 13 14 15 16 17 18 19 20 21 22 23 24 25 26 27 28 29 30 31 32 33 34 35 36 37 38 39 40 41 42 43 44 45 46 47 48 49 50
000
ASUS44 KMEG 251100
RWRTN
TENNESSEE HOURLY STATE WEATHER ROUNDUP
NATIONAL WEATHER SERVICE MEMPHIS TN
600 AM CDT WED MAY 25 2016

TNZ002-004-019-021-049-052-054-088>092-251200-
WEST TENNESSEE

CITY           SKY/WX    TMP DP  RH WIND       PRES   REMARKS
MEMPHIS INTL   CLOUDY    66  62  87 S7        30.08R
NWS MEMPHIS      N/A     64 N/A N/A MISG        N/A
JACKSON        PTCLDY    65  63  93 CALM      30.10R
DYERSBURG      CLOUDY    64  63  94 SE5       30.09R
UNION CITY     CLEAR     66  64  94 S5        30.07R
PARIS          MOCLDY    64  64 100 SW7       30.10R
LEXINGTON      CLOUDY    64  63  94 CALM      30.10R
$$

TNZ008-025-027-028-033-062-065-066-251200-
NORTH MIDDLE TENNESSEE

CITY           SKY/WX    TMP DP  RH WIND       PRES   REMARKS
NASHVILLE      CLOUDY    68  57  68 S6        30.11R
CLARKSVILLE    CLOUDY    68  61  78 SW6       30.09R
COOKEVILLE     PTCLDY    61  57  88 CALM      30.15R
CROSSVILLE     CLOUDY    63  52  67 CALM      30.21R
$$

TNZ061-075-076-078-094-096-097-251200-
SOUTH MIDDLE TENNESSEE

CITY           SKY/WX    TMP DP  RH WIND       PRES   REMARKS
TULLAHOMA      CLEAR     64  59  82 CALM      30.17R
WINCHESTER     CLEAR     64  55  72 CALM      30.16R
MCMINNVILLE    PTCLDY    61  61 100 CALM      30.16R
COLUMBIA       PTCLDY    70  70 100 S5        30.11R
SHELBYVILLE    CLEAR     70  57  64 CALM      30.16R
$$

TNZ017-018-042-046-047-251200-
NORTHEAST TENNESSEE

CITY           SKY/WX    TMP DP  RH WIND       PRES   REMARKS
TRI CITIES     PTCLDY    51  49  92 CALM      30.25R
$$

TNZ012-013-036-069-073-074-251200-
CENTRAL EAST TENNESSEE

CITY           SKY/WX    TMP DP  RH WIND       PRES   REMARKS
KNOXVILLE      PTCLDY    60  52  74 N5        30.19R
OAK RIDGE      CLEAR     58  55  90 CALM      30.21R
GATLINBURG     CLEAR     55  50  82 CALM      30.20R
$$

TNZ083-085-099-251200-
SOUTHEAST TENNESSEE

CITY           SKY/WX    TMP DP  RH WIND       PRES   REMARKS
CHATTANOOGA    PTCLDY    60  56  86 CALM      30.18R
$$

SKY/WX REPORTED AS FAIR MEANS FEW OR NO CLOUDS BELOW
12 THOUSAND FEET.





USA.gov is the U.S. government's official web portal to all federal, state and local government web resources and services.